Regional Weather Roundup
Issued by NWS Lake Charles, LA

Home | Current Version | Previous Version | Text Only | Print | Product List | Glossary On
Versions: 1 2 3 4 5 6 7 8 9 10 11 12 13 14 15 16 17 18 19 20 21 22 23 24 25 26 27 28 29 30 31 32 33 34 35 36 37 38 39 40 41 42 43 44 45 46 47 48 49 50
000
ASUS44 KLCH 291710
RWRLCH
RWRLCH
REGIONAL WEATHER ROUNDUP
NATIONAL WEATHER SERVICE LAKE CHARLES LA
1200 PM CDT TUE JUL 29 2014

Note: "fair" indicates few or no clouds below 12,000 feet with no
significant weather and/or obstructions to visibility.


ACROSS SOUTHEAST TEXAS

CITY           SKY/WX    TMP DP  RH WIND       PRES   REMARKS
BEAUMONT       CLOUDY    80  76  87 SW7       30.10S
BEAUMONT CITY  CLOUDY    82  75  78 S3        30.10F
ORANGE         PTSUNNY   86  73  65 CALM      30.11S
JASPER         CLOUDY    81  71  72 NE6       30.14S
$$

ACROSS CENTRAL LOUISIANA

CITY           SKY/WX    TMP DP  RH WIND       PRES   REMARKS
LEESVILLE      PTSUNNY   83  67  58 CALM      30.12S
FULLERTON        N/A     85  65  51 CALM      30.09S
ALEXANDRIA INT PTSUNNY   87  64  46 VRB3      30.10S
ESLER FIELD    MOSUNNY   88  64  44 N7        30.11S
DERIDDER         N/A     83  65  54 CALM      30.13S
OAKDALE        MOSUNNY   85  67  53 N6        30.10F
OPELOUSAS        N/A     84  68  59 NE6       30.10S
$$

ACROSS SOUTHWEST AND SOUTH CENTRAL LOUISIANA

CITY           SKY/WX    TMP DP  RH WIND       PRES   REMARKS
SULPHUR        MOSUNNY   89  71  55 NE6       30.09F
LAKE CHARLES   PTSUNNY   87  70  56 E5        30.09F
CHENNAULT INT  MOSUNNY   86  68  54 E8        30.10F
CAMERON PHI    CLOUDY    84  77  79 S3        30.09F
DEQUINCY         N/A     85  70  60 E3        30.10F
JENNINGS       PTSUNNY   85  68  57 NE7       30.09F
LAFAYETTE      PTSUNNY   85  72  65 NE6       30.09F
NEW IBERIA     CLOUDY    86  69  56 NE7       30.09F
ABBEVILLE      CLOUDY    84  70  63 CALM      30.09S
PATTERSON      CLOUDY    84  72  65 N5        30.12S
SALT POINT       N/A     87  75  67 CALM      30.07S
$$

SELECTED SITES ACROSS THE REGION

CITY           SKY/WX    TMP DP  RH WIND       PRES   REMARKS
HOUSTON BUSH   CLOUDY    90  75  61 VRB5      30.08F HX 100
HOUSTON HOBBY  PTSUNNY   91  66  43 NW9       30.08F
GALVESTON      SUNNY     89  75  63 VRB7      30.09F
COLLEGE STAT   MOSUNNY   88  73  61 NE6       30.10F
CONROE         PTSUNNY   84  73  69 E5        30.11F
HUNTSVILLE     MOSUNNY   85  72  65 SE3       30.11F
LUFKIN         PTSUNNY   87  73  62 E8        30.12F
SHREVEPORT     MOSUNNY   87  63  44 CALM      30.11F
MONROE         SUNNY     87  66  49 N6        30.11S
NATCHEZ MS     SUNNY     82  66  57 N8        30.11F
BATON ROUGE    PTSUNNY   85  66  53 NE6       30.09F
N.O. INTL ARPT PTSUNNY   85  67  54 NE8       30.08S
SLIDELL        PTSUNNY   84  66  54 N8        30.07F
$$

MARINE REPORTS

STATION/POSITION TIME  TEMP    WIND        PRES    VSBY  WAVE
                       AIR SEA DIR/SP/G                  HT/PER
                 (UTC) (F)     (DEG/KT/KT) (MB)    (MI)  (FT/S)
BUOY 30 S HIGH I NOT AVBL
SEA RIM ST PARK  1700   79      20/ 10/ 12 1019.8R
PORT ARTHUR      1700      88  220/  2/  3 1019.5S
SABINE PASS N    1700   80 87   20/ 10/ 12 1019.5S
TEXAS POINT      1700   80 87   10/  7/  9 1019.5S
CALCASIEU PASS   1700   82 88  180/  5/  6 1020.1S
LK CHARLES BEACH 1700   87 87              1019.8F
MARSH ISLAND     1600   81     340/  5/  6   N/A
FRESH WATER LOCK 1700   82 87  360/  5/  7 1018.7F
AMERADA PASS     1700   83 84   80/  2/  3 1018.6S
$$



USA.gov is the U.S. government's official web portal to all federal, state and local government web resources and services.